Monterey, CA

6:20 AM PST on January 19, 2018 (GMT -0800)
Monterey Peninsula

Weather History for KMRY - January, 2013

Change the Weather History Date:

Sunday, January 20, 2013

  Actual Average Record
Temperature  
Mean Temperature 60 °F 51 °F  
Max Temperature 77 °F 59 °F 77 °F (2013)
Min Temperature 43 °F 43 °F 35 °F (2007)
Degree Days  
Heating Degree Days 5    
Month to date heating degree days 330  
Since 1 July heating degree days 1688  
Cooling Degree Days 0    
Month to date cooling degree days 0  
Year to date cooling degree days 0  
Growing Degree Days 10 (Base 50)    
Moisture  
Dew Point 28 °F    
Average Humidity 36    
Maximum Humidity 58    
Minimum Humidity 13    
Precipitation  
Precipitation 0.00 in - 0.68 in (2017)
Month to date precipitation 0.64  
Year to date precipitation 0.64  
Since 1 July precipitation 8.88  
Sea Level Pressure  
Sea Level Pressure 30.17 in    
Wind  
Wind Speed 5 mph (East)    
Max Wind Speed 13 mph    
Max Gust Speed 15 mph    
Visibility 10 miles    
Events      
T = Trace of Precipitation, MM = Missing Value Source: NWS Daily Summary

Daily Weather History Graph

Daily Weather History Graph

Search for Another Location

Airport or City:

Trip Planner

Search our weather history database for the weather conditions in past years. The results will help you decide how hot, cold, wet, or windy it might be!

Date:

Astronomy

Jan. 20, 2013 Rise Set
Actual Time 7:16 AM PST 5:20 PM PST
Civil Twilight 6:48 AM PST 5:48 PM PST
Nautical Twilight 6:17 AM PST 6:20 PM PST
Astronomical Twilight 5:46 AM PST 6:50 PM PST
Moon 12:24 PM PST (1/20) 1:54 AM PST (1/20)
Length of Visible Light 10h 59m
Length of Day
10h 04m
Waxing Gibbous, 67% of the Moon is Illuminated
Jan 20
Waxing Gibbous
Jan 26
Full
Feb 3
Last Quarter
Feb 9
New
Feb 17
First Quarter

Hourly Weather History & Observations

Time (PST) Temp. Windchill Dew Point Humidity Pressure Visibility Wind Dir Wind Speed Gust Speed Precip Events Conditions
12:54 AM 43.0 °F - 28.9 °F 58% 30.22 in 10.0 mi Calm Calm - N/A   Clear
1:54 AM 48.9 °F - 26.1 °F 41% 30.21 in 10.0 mi East 6.9 mph - N/A   Clear
2:54 AM 51.1 °F - 24.1 °F 35% 30.21 in 10.0 mi East 4.6 mph - N/A   Clear
3:54 AM 48.9 °F - 23.0 °F 36% 30.20 in 10.0 mi Calm Calm - N/A   Clear
4:54 AM 51.1 °F - 21.0 °F 31% 30.19 in 10.0 mi ENE 5.8 mph - N/A   Clear
5:54 AM 54.0 °F - 19.0 °F 25% 30.19 in 10.0 mi East 9.2 mph - N/A   Clear
6:54 AM 52.0 °F - 19.9 °F 28% 30.19 in 10.0 mi East 10.4 mph - N/A   Clear
7:54 AM 54.0 °F - 19.0 °F 25% 30.19 in 10.0 mi East 10.4 mph - N/A   Clear
8:54 AM 59.0 °F - 21.9 °F 24% 30.20 in 10.0 mi East 9.2 mph - N/A   Clear
10:54 AM 62.1 °F - 37.9 °F 41% 30.19 in 10.0 mi WSW 3.5 mph - N/A   Clear
11:54 AM 66.9 °F - 37.0 °F 33% 30.17 in 10.0 mi WSW 6.9 mph - N/A   Clear
12:54 PM 73.0 °F - 34.0 °F 24% 30.13 in 10.0 mi Calm Calm - N/A   Clear
1:54 PM 77.0 °F - 23.0 °F 13% 30.11 in 10.0 mi NNE 9.2 mph - N/A   Clear
2:54 PM 75.9 °F - 26.1 °F 16% 30.12 in 10.0 mi Variable 3.5 mph - N/A   Clear
3:54 PM 69.1 °F - 34.0 °F 27% 30.14 in 10.0 mi WSW 6.9 mph - N/A   Clear
4:54 PM 66.9 °F - 36.0 °F 32% 30.14 in 10.0 mi Calm Calm - N/A   Clear
5:54 PM 57.0 °F - 37.0 °F 47% 30.15 in 10.0 mi Calm Calm - N/A   Clear
6:54 PM 51.1 °F - 34.0 °F 52% 30.16 in 10.0 mi East 4.6 mph - N/A   Clear
7:54 PM 50.0 °F - 33.1 °F 52% 30.17 in 10.0 mi East 6.9 mph - N/A   Clear
8:54 PM 50.0 °F - 30.0 °F 46% 30.17 in 10.0 mi Calm Calm - N/A   Clear
9:54 PM 48.9 °F - 28.9 °F 46% 30.18 in 10.0 mi Calm Calm - N/A   Clear
10:54 PM 46.0 °F 43.1 °F 27.0 °F 47% 30.18 in 10.0 mi East 5.8 mph - N/A   Clear
11:54 PM 46.0 °F - 26.1 °F 46% 30.17 in 10.0 mi Calm Calm - N/A   Clear